Voltar ao catálogo

STARLINK-33662

AtivoComunicaçõesVLEO
NORAD 63285·PAYLOAD·🇺🇸 United States

Lançado Mar 15, 2025 de Cape Canaveral Space Force Station

Loading…

Próximas Passagens (próximas 24 horas)

TLE

AtualizadoSource: CelesTrak SupGP

Época: Sep 15, 2026, 03:33 UTC

1 63285C 25053W   26258.14840278 -.00041051  00000+0 -14871-2 0  2589
2 63285  43.0028 251.6969 0001364 268.2540 322.1553 15.27593115    13

Acompanhe STARLINK-33662 em tempo real com AllMySat

Download on the App Store